Location: Mizzole
(45.4833°N, 11.0500°E)
Time: 23:46:24
(UTC+00:00)

Cosmos 1459 Rocket - Pass Details

Date: 21 October 2019
Orbit: 938 x 999 km, 83.0° (Epoch: 14 November)

Event Time Altitude Azimuth Distance (km) Brightness Sun altitude
Rises 18:36:24 0° 349° (N) 3,663 7.3 -24.4°
Reaches altitude 10° 18:38:54 10° 348° (NNW) 2,722 6.6 -24.9°
Maximum altitude 18:45:07 73° 265° (W) 1,025 4.1 -25.9°
Drops below altitude 10° 18:51:23 10° 182° (S) 2,743 6.2 -27.0°
Sets 18:53:55 0° 181° (S) 3,694 6.9 -27.4°
